Tracking 25612 objects as of 19-May-2022
HD Live streaming from Space Station
objects crossing your sky now

COSMOS 2251 DEB

Track COSMOS 2251 DEB now!
10-day predictions


NORAD ID: 35825
Int'l Code: 1993-036ASX
Perigee: 751.5 km
Apogee: 1,306.9 km
Inclination: 74.1 °
Period: 105.6 minutes
Semi major axis: 7400 km
RCS: 0.0121 m2 (small)
Launch date: June 16, 1993
Source: Commonwealth of Independent States (former USSR) (CIS)
Launch site: PLESETSK MISSILE AND SPACE COMPLEX (PKMTR)

Note: This is SATELLITE DEBRIS
aabbcc
Your satellite tracking list
Your tracking list is empty




NASA's NSSDC Master Catalog

Two Line Element Set (TLE):
1 35825U 93036ASX 22136.23122397  .00001209  00000-0  96230-3 0  9992
2 35825  74.1160 115.8685 0375231 160.6974 200.8806 13.63755509646567
Source of the keplerian elements: AFSPC